32P/Comas Sola (2024)

Japanese version
Home page
Updated on September 2, 2023

---------------------------------------------------------------------

* Profile

* Pictures

* Orbital Elements

Epoch 2023 Feb. 25.0 TT = JDT 2460000.5
T 2024 Apr. 20.57237 TT                                 Rudenko
q   2.0196608            (2000.0)            P               Q
n   0.10132846     Peri.   54.77522     -0.32169671     -0.93639788
a   4.5566789      Node    54.59241     +0.80316984     -0.34831608
e   0.5567691      Incl.    9.90854     +0.50142740     -0.04283599
P   9.73
>From 3236 observations 2004 July 20-2023 June 30, mean residual 0".7.
     Nongravitational parameters A1 = -0.51, A2 = -0.0924.

* Finding Charts

* Magnitudes Graph

        m1 = 9.5 + 5 log d + 12.0 log r

---------------------------------------------------------------------

The orbital elements are published on M.P.E.C. 2023-N16.
The charts are made with StellaNavigator Ver.10 (AstroArts).
The magnitudes graphs are made with Comet for Windows.

---------------------------------------------------------------------

Copyright(C) Seiichi Yoshida (comet@aerith.net). All rights reserved.